Wind_Speed
34 31 29 29 32 33 32 37 37 35 31 25 14 37 39 37 36 36 34 32 34 32
34 34 32 34 32 30 33 35 35 34 32 29 18 29 38 36 34 40 39 36 35 33
34 34 36 34 33 34 34 34 35 33 31 25 22 26 39 33 37 40 38 36 36 34
37 37 38 37 36 35 35 34 33 32 32 26 27 16 38 34 40 39 38 38 40 37
38 37 38 39 38 37 36 34 31 31 30 28 26 17 33 35 39 40 38 40 38 38
38 38 38 38 38 37 35 34 32 32 29 28 27 19 20 38 39 40 42 43 42 43
38 38 37 37 38 37 35 34 32 31 27 26 28 17 12 30 38 39 39 43 45 46
38 38 37 39 38 37 35 32 30 30 27 24 22 15 13 16 36 37 37 39 41 46
38 39 39 40 40 40 39 36 34 32 29 25 23 15 10 12 30 36 38 37 37 43
37 38 39 39 39 40 39 38 35 32 30 25 21 15 12 12 16 31 34 39 37 36
35 37 37 38 39 40 39 36 35 34 31 29 21 13 9 8 13 24 32 33 38 39
31 34 34 36 39 39 39 38 35 34 33 31 31 13 5 2 9 15 23 28 31 35
28 30 31 34 34 37 37 35 34 35 33 31 34 23 9 2 4 10 14 17 24 28
25 27 28 30 28 30 34 34 34 34 33 34 35 31 16 11 6 6 11 14 17 24
Wind_Direction
345 335 330 319 326 327 320 316 326 319 304 295 274 216 210 200 196 193 189 183 178 175
343 340 332 329 332 327 326 320 323 322 315 294 275 229 206 195 190 194 195 187 180 171
338 342 339 337 337 334 329 331 323 321 319 307 275 244 205 193 190 189 189 184 179 173
344 345 343 342 341 336 330 333 327 331 318 314 297 268 200 195 189 185 184 184 186 181
346 343 344 344 343 339 333 336 331 323 324 318 307 270 204 191 189 184 180 181 180 178
345 343 344 344 344 339 336 335 336 328 329 326 313 276 233 193 188 184 184 183 181 181
344 344 343 345 344 343 343 334 340 330 333 327 313 297 262 205 191 188 186 187 188 186
345 345 348 347 346 349 342 338 341 338 340 326 317 304 273 228 190 187 187 188 190 194
347 347 350 350 349 349 344 344 343 343 338 333 325 309 273 271 195 187 187 184 186 194
349 347 349 350 348 352 343 344 343 339 344 340 329 320 254 278 215 187 189 185 182 186
349 348 349 349 350 353 345 341 340 338 344 351 347 315 270 263 233 216 200 194 192 192
350 347 347 346 350 354 347 344 342 345 351 356 3 335 295 174 207 222 204 198 195 195
349 348 350 345 351 354 354 342 345 349 358 7 12 21 47 31 275 227 215 195 201 203
349 349 351 347 353 357 357 351 354 354 357 8 15 9 13 20 342 270 222 198 193 199
Height
824 817 811 807 796 784 776 770 760 755 752 744 744 745 747 750 755 759 763 770 773 775
823 817 809 803 793 785 777 772 759 753 745 745 736 741 740 744 748 753 759 764 769 771
822 813 804 796 787 779 774 764 758 754 743 729 731 735 733 737 741 746 753 759 765 770
818 807 799 788 781 777 771 761 752 740 743 731 728 726 725 731 734 740 747 753 757 764
814 807 798 788 780 772 764 756 750 747 735 725 722 716 720 723 726 732 739 746 753 759
814 807 799 790 780 775 765 755 745 739 730 719 718 715 715 714 720 724 732 738 746 753
814 806 799 790 781 770 760 753 743 739 727 719 718 709 707 710 713 718 724 731 738 744
812 805 796 787 779 770 762 753 745 734 724 724 716 707 705 705 705 712 719 725 731 738
809 800 792 783 774 762 754 748 740 730 724 717 710 705 700 703 705 705 712 720 727 734
809 802 791 784 776 766 758 747 739 732 724 718 709 700 700 703 699 701 709 715 719 728
811 801 794 786 775 767 758 748 736 732 725 714 708 705 703 700 695 705 709 708 714 722
812 804 797 787 777 770 760 749 746 731 721 712 704 702 699 697 699 706 706 709 711 717
812 805 796 788 779 770 760 752 744 735 727 719 712 707 706 699 704 706 706 703 711 714
812 806 799 790 786 781 771 761 748 740 732 724 716 712 711 709 708 704 704 705 707 717